Location: Casilda
(33.0440°S, 61.1680°W)
Time: 01:22:21
(UTC-03:00)

ISS - Pass Details

Date: 15 February 2020
Orbit: 415 x 423 km, 51.6° (Epoch: 27 February)

Event Time Altitude Azimuth Distance (km) Brightness Sun altitude
Rises 21:12:28 0° 305° (NW) 2,362 0.5 -15.7°
Reaches altitude 10° 21:14:35 10° 300° (WNW) 1,503 -0.5 -16.1°
Maximum altitude 21:17:53 52° 222° (SW) 532 -2.9 -16.7°
Drops below altitude 10° 21:21:14 10° 143° (SE) 1,516 -1.0 -17.3°
Enters shadow 21:22:28 - 140° (SE) 2,015 -0.4 -17.6°
